Stations météo

Publicité
Abbeville, France (7005): Température de l'air & dewpoint: 11.12.2017 03:00:00 - 17.12.2017 03:00:00 (CET)Abbeville, France (7005): Température de l'air 5cm: 11.12.2017 03:00:00 - 17.12.2017 03:00:00 (CET)Abbeville, France (7005): Température de l'air -20cm & Température de l'air -100cm: 11.12.2017 03:00:00 - 17.12.2017 03:00:00 (CET)Abbeville, France (7005): Vitesse du vent & gusts: 11.12.2017 03:00:00 - 17.12.2017 03:00:00 (CET)Abbeville, France (7005): Direction du vent: 11.12.2017 03:00:00 - 17.12.2017 03:00:00 (CET)Abbeville, France (7005): reduced air pressure: 11.12.2017 03:00:00 - 17.12.2017 03:00:00 (CET)Abbeville, France (7005): visibility: 11.12.2017 03:00:00 - 17.12.2017 03:00:00 (CET)Abbeville, France (7005): Ensoleillement: 11.12.2017 03:00:00 - 17.12.2017 03:00:00 (CET)Abbeville, France (7005): Quantités de précipitations: 11.12.2017 03:00:00 - 17.12.2017 03:00:00 (CET)
Date & Time tt [°C] td [°C] tt 5cm [°C] tt -20cm [°C] tt -100cm [°C] ff [km/h] ff [knt] fx [km/h] fx [knt] dd ppp [hPa] vv [km] sd [min] rr [mm]
17.12.2017 03:00:00 1,6 0,7 - - - 5 3 11 6 N 1023,3 14 0 0,0
17.12.2017 02:00:00 2,2 1,2 - - - 11 6 14 8 NNW 1022,9 17 0 0,0
17.12.2017 01:00:00 3,5 2,3 1,0 4,6 8,0 9 5 12 6 NNW 1022,4 20 0 0,0
17.12.2017 00:00:00 3,9 2,7 3,0 4,6 8,0 6 3 9 5 NNW 1021,9 20 0 0,2
16.12.2017 23:00:00 3,6 2,6 1,7 4,6 8,0 5 3 7 4 W 1021,5 20 0 0,0
16.12.2017 22:00:00 3,4 2,5 2,4 4,7 8,0 4 2 9 5 S 1020,9 15 0 0,0
16.12.2017 21:00:00 3,5 2,5 3,0 4,7 8,1 5 3 8 5 SSW 1021,0 20 0 0,0
16.12.2017 20:00:00 3,5 2,3 2,6 4,7 8,0 5 3 21 11 SW 1020,6 20 0 0,0
16.12.2017 19:00:00 3,9 1,8 2,9 4,8 8,1 17 9 28 15 W 1020,3 15 0 0,0
16.12.2017 18:00:00 3,2 0,1 1,7 4,8 8,1 7 4 10 5 W 1020,1 20 0 0,0
16.12.2017 17:00:00 3,1 -0,2 1,9 4,8 8,0 7 4 19 10 WSW 1019,8 30 12 0,0
16.12.2017 16:00:00 4,2 0,2 3,8 4,7 8,1 15 8 30 16 WNW 1019,3 30 0 0,0
16.12.2017 15:00:00 4,9 0,1 6,2 4,7 8,1 19 10 33 18 WNW 1018,4 30 31 0,0
16.12.2017 14:00:00 5,3 0,8 4,6 4,6 8,1 22 12 34 18 WNW 1018,2 30 27 0,0
16.12.2017 13:00:00 5,0 1,5 5,2 4,6 8,1 18 10 29 16 NW 1017,8 30 34 0,0
16.12.2017 12:00:00 4,8 1,5 4,6 4,6 8,1 20 11 29 16 WNW 1017,6 30 42 0,0
16.12.2017 11:00:00 4,1 1,3 3,9 4,5 8,1 15 8 27 14 NW 1017,2 30 0 0,0
16.12.2017 10:00:00 3,8 2,0 3,3 4,5 8,1 8 5 19 10 NNW 1016,3 25 0 0,0
16.12.2017 09:00:00 3,6 1,6 2,5 4,6 8,1 10 6 29 16 NW 1015,1 25 0 0,0
16.12.2017 08:00:00 3,7 1,4 2,8 4,6 8,1 22 12 35 19 NNW 1014,2 20 0 0,0
16.12.2017 07:00:00 3,7 1,6 3,0 4,6 8,1 21 11 37 20 NW 1013,2 20 0 0,0
16.12.2017 06:00:00 4,1 2,3 3,5 4,6 8,1 14 7 35 19 NNW 1012,5 20 0 0,0
16.12.2017 05:00:00 4,3 2,2 3,7 4,6 8,1 21 11 38 20 NNW 1011,5 20 0 0,0
16.12.2017 04:00:00 4,5 2,4 3,7 4,6 8,1 24 13 41 22 NNW 1010,8 20 0 0,0
16.12.2017 03:00:00 4,4 2,6 3,1 4,6 8,1 23 12 46 25 NW 1009,8 20 0 0,0
16.12.2017 02:00:00 4,3 2,3 3,4 4,6 8,1 22 12 32 17 NNW 1008,5 20 0 0,0
16.12.2017 01:00:00 5,0 2,9 4,3 4,6 8,2 23 13 41 22 NNW 1007,9 19 0 0,0
16.12.2017 00:00:00 5,2 2,9 4,1 4,6 8,2 22 12 46 25 NW 1007,0 20 0 0,0
15.12.2017 23:00:00 5,1 2,8 4,3 4,6 8,2 26 14 35 19 NNW 1005,9 20 0 0,0
15.12.2017 22:00:00 4,8 3,0 3,5 4,6 8,1 21 11 33 18 NW 1004,8 20 0 0,0
15.12.2017 21:00:00 4,0 2,8 3,4 4,6 8,2 14 7 39 21 N 1003,8 14 0 0,4
15.12.2017 20:00:00 4,5 3,2 3,8 4,5 8,2 22 12 47 26 NNW 1002,3 13 0 1,2
15.12.2017 19:00:00 4,6 2,9 3,3 4,5 8,2 24 13 39 21 NW 1001,0 8 0 0,8
15.12.2017 18:00:00 4,6 2,5 3,6 4,5 8,2 23 12 35 19 NNW 1000,3 16 0 0,2
15.12.2017 17:00:00 4,3 2,2 3,4 4,5 8,2 14 8 31 17 NW 999,3 22 0 0,0
15.12.2017 16:00:00 4,5 2,2 4,1 4,4 8,2 23 13 37 20 NNW 998,1 22 0 0,0
15.12.2017 15:00:00 4,4 3,1 4,2 4,4 8,2 20 11 29 16 NNW 997,1 15 0 0,0
15.12.2017 14:00:00 4,8 3,9 4,3 4,3 8,2 10 5 14 8 NW 996,2 25 0 0,0
15.12.2017 13:00:00 4,8 3,5 4,1 4,2 8,2 5 3 15 8 SW 995,4 15 0 0,0
15.12.2017 12:00:00 4,4 3,2 3,2 4,2 8,2 8 5 19 11 SSW 994,8 15 8 0,0
15.12.2017 11:00:00 3,9 2,9 3,3 4,2 8,2 10 5 22 12 SSW 994,2 13 0 1,2
15.12.2017 10:00:00 4,0 3,0 2,9 4,3 8,2 12 6 36 20 SW 993,7 8 0 1,4
15.12.2017 09:00:00 3,9 2,4 2,4 4,3 8,2 10 5 22 12 SSW 993,2 7 0 0,4
15.12.2017 08:00:00 2,9 2,0 1,5 4,4 8,2 9 5 15 8 S 993,0 25 0 0,0
15.12.2017 07:00:00 2,9 1,7 1,8 4,4 8,2 10 5 21 11 S 993,1 20 0 0,0
15.12.2017 06:00:00 3,0 1,8 1,9 4,4 8,2 8 4 16 8 WSW 993,2 20 0 0,0
15.12.2017 05:00:00 3,0 2,3 2,0 4,4 8,2 11 6 24 13 WSW 992,9 20 0 0,2
15.12.2017 04:00:00 2,7 1,8 1,8 4,5 8,3 11 6 26 14 SW 992,5 17 0 1,0
15.12.2017 03:00:00 2,7 1,5 2,1 4,5 8,3 11 6 23 13 SW 992,3 20 0 1,0
15.12.2017 02:00:00 3,4 1,8 2,8 4,5 8,3 12 6 29 16 SSW 991,6 20 0 0,0
15.12.2017 01:00:00 4,1 2,4 3,2 4,5 8,3 11 6 28 15 SW 991,8 20 0 0,4
15.12.2017 00:00:00 3,8 2,6 - 4,6 8,3 14 8 27 15 SW 991,6 20 0 0,2
14.12.2017 23:00:00 2,8 1,6 - - - 11 6 23 12 SSW 991,4 20 0 0,0
14.12.2017 22:00:00 2,4 1,2 - - - 8 5 23 12 SSW 991,7 20 0 0,2
14.12.2017 21:00:00 3,0 2,0 2,0 4,7 8,3 11 6 29 15 SW 991,7 17 0 0,2
14.12.2017 20:00:00 3,0 2,1 2,4 4,7 8,3 10 5 30 16 SSW 991,6 20 0 0,0
14.12.2017 19:00:00 3,1 2,1 2,5 4,7 8,4 18 10 46 25 SW 991,6 19 0 4,4
14.12.2017 18:00:00 4,0 2,2 3,2 4,7 8,4 25 13 50 27 SW 991,7 9 0 0,4
14.12.2017 17:00:00 4,9 1,7 3,8 4,7 8,4 19 10 34 19 WSW 991,8 20 13 0,0
14.12.2017 16:00:00 4,7 2,7 3,8 4,7 8,4 17 9 48 26 SSW 992,0 20 7 0,0
14.12.2017 15:00:00 4,8 2,5 3,8 4,8 8,4 21 12 45 24 SW 993,3 20 0 0,4
14.12.2017 14:00:00 4,9 3,2 4,1 4,8 8,4 22 12 49 27 SW 994,2 12 0 1,2
14.12.2017 13:00:00 5,0 3,2 3,2 5,0 8,4 22 12 43 23 SW 995,1 10 0 1,0
14.12.2017 12:00:00 4,1 2,6 2,7 5,1 8,4 21 11 55 30 SW 996,3 13 0 3,5
14.12.2017 11:00:00 3,9 2,6 1,5 5,2 8,4 24 13 51 27 WSW 996,8 5 0 5,0
14.12.2017 10:00:00 3,8 2,2 3,1 5,2 8,4 17 9 44 24 SSW 996,9 25 0 0,0
14.12.2017 09:00:00 4,3 2,0 3,3 5,3 8,4 29 16 53 29 SW 997,1 25 0 1,0
14.12.2017 08:00:00 4,6 2,6 3,1 5,3 8,4 26 14 54 29 WSW 997,2 6 0 1,4
14.12.2017 07:00:00 5,6 2,1 4,0 5,3 8,4 34 18 70 38 WSW 997,6 6 0 0,2
14.12.2017 06:00:00 7,8 1,6 6,5 5,4 8,4 36 19 60 33 WSW 997,2 20 0 0,0
14.12.2017 05:00:00 7,2 1,7 6,3 5,4 8,5 38 20 71 38 W 997,7 20 0 0,0
14.12.2017 04:00:00 7,2 1,3 5,9 5,4 8,4 34 18 71 39 W 997,4 20 0 0,0
14.12.2017 03:00:00 6,7 -0,1 5,4 5,5 8,4 48 26 80 43 W 996,7 20 0 0,0
14.12.2017 02:00:00 6,5 -1,2 5,4 5,5 8,4 56 30 93 50 W 995,5 20 0 0,0
14.12.2017 01:00:00 6,8 0,7 4,3 5,6 8,5 50 27 82 45 W 994,1 20 0 0,2
14.12.2017 00:00:00 5,3 3,9 4,3 5,6 8,5 46 25 73 40 W 993,6 6 0 3,8
13.12.2017 23:00:00 7,1 3,7 5,7 5,7 8,5 10 5 28 15 SSW 992,7 17 0 0,0
13.12.2017 22:00:00 7,0 2,3 5,9 5,6 8,5 19 11 43 23 W 994,3 20 0 0,0
13.12.2017 21:00:00 7,4 1,9 6,3 5,6 8,5 29 15 43 23 W 994,4 20 0 0,0
13.12.2017 20:00:00 7,6 4,4 6,7 5,5 8,5 27 14 64 34 W 994,1 20 0 0,8
13.12.2017 19:00:00 8,6 7,2 7,5 5,4 8,5 39 21 65 35 W 994,1 4,2 0 2,7
13.12.2017 18:00:00 8,6 7,5 7,7 5,3 8,5 25 13 50 27 SW 993,8 8 0 1,6
13.12.2017 17:00:00 8,4 7,0 7,6 5,2 8,5 18 10 44 24 SSW 995,0 16 0 0,2
13.12.2017 16:00:00 8,9 6,5 8,1 5,1 8,5 24 13 49 26 SSW 996,8 20 1 0,2
13.12.2017 15:00:00 8,7 6,8 7,8 4,9 8,5 18 10 42 23 SW 998,4 13 0 0,2
13.12.2017 14:00:00 8,5 7,0 7,8 4,8 8,5 19 10 34 18 SW 999,8 8 0 0,8
13.12.2017 13:00:00 8,6 6,7 7,8 4,7 8,5 18 10 34 18 SW 1001,2 10 0 0,4
13.12.2017 12:00:00 8,7 6,7 8,1 4,6 8,5 15 8 27 14 SW 1002,1 18 22 0,0
13.12.2017 11:00:00 7,9 6,2 7,2 4,5 8,5 12 7 26 14 SW 1003,0 20 2 0,0
13.12.2017 10:00:00 7,7 6,0 6,8 4,4 8,5 20 11 40 22 WSW 1003,0 30 0 0,0
13.12.2017 09:00:00 7,3 6,1 5,6 4,4 8,6 23 12 48 26 SW 1003,5 20 0 0,0
13.12.2017 08:00:00 6,0 5,0 5,3 4,3 8,6 16 8 46 25 SSW 1004,0 6 0 0,0
13.12.2017 07:00:00 5,7 4,7 4,6 4,3 8,6 19 10 45 24 S 1004,3 7 0 0,4
13.12.2017 06:00:00 5,0 4,1 4,5 4,3 8,6 16 8 42 23 S 1005,4 4,0 0 1,6
13.12.2017 05:00:00 5,2 3,5 3,9 4,2 8,6 20 11 38 20 S 1006,6 7 0 0,8
13.12.2017 04:00:00 4,7 3,0 3,9 4,2 8,6 16 9 30 16 SSE 1008,6 14 0 0,2
13.12.2017 03:00:00 5,0 2,4 4,3 4,2 8,6 12 7 29 16 S 1010,0 20 0 0,0
13.12.2017 02:00:00 4,7 2,1 3,7 4,3 8,6 13 7 30 16 S 1010,4 20 0 0,0
13.12.2017 01:00:00 4,1 2,1 2,7 4,3 8,6 8 5 18 10 S 1011,3 20 0 0,0
13.12.2017 00:00:00 3,1 1,5 2,5 4,3 8,6 10 5 20 11 SE 1012,0 20 0 0,0
12.12.2017 23:00:00 3,0 1,2 - 4,4 8,6 13 7 22 12 SSE 1012,7 20 0 0,0
12.12.2017 22:00:00 2,7 0,9 - - - 13 7 21 11 S 1013,2 20 0 0,0
12.12.2017 21:00:00 2,2 0,6 - - - 9 5 16 9 S 1013,5 20 0 0,0
12.12.2017 20:00:00 1,9 0,4 - - - 9 5 16 9 SSE 1013,5 20 0 0,0
12.12.2017 19:00:00 2,0 0,2 - - - 9 5 14 7 S 1013,3 20 0 0,0
12.12.2017 18:00:00 2,6 0,3 - - - 7 4 11 6 S 1013,4 20 0 0,0
12.12.2017 17:00:00 3,6 0,3 1,6 4,6 8,7 5 3 18 10 S 1012,5 40 0 0,0
12.12.2017 16:00:00 5,7 0,5 4,3 4,4 8,7 13 7 23 12 SW 1012,3 40 24 0,0
12.12.2017 15:00:00 5,4 0,2 4,7 4,3 8,7 13 7 25 13 WSW 1011,4 40 37 0,0
12.12.2017 14:00:00 6,3 0,8 4,9 4,1 8,7 15 8 22 12 W 1011,1 40 45 0,0
12.12.2017 13:00:00 6,8 2,1 7,0 4,0 8,7 6 4 18 10 SSW 1010,7 35 58 0,0
12.12.2017 12:00:00 5,5 1,6 6,7 4,0 8,7 8 4 15 8 SSW 1010,5 35 52 0,0
12.12.2017 11:00:00 3,5 0,9 - 4,1 8,7 5 3 11 6 SSW 1010,3 30 47 0,0
12.12.2017 10:00:00 2,0 0,5 - - - 4 2 9 5 S 1009,0 30 38 0,0
12.12.2017 09:00:00 0,9 -0,6 - - - 6 3 11 6 SSW 1008,0 30 0 0,0
12.12.2017 08:00:00 1,3 -0,3 - - - 7 4 13 7 W 1006,7 30 0 0,0
12.12.2017 07:00:00 1,5 0,0 - - - 10 5 15 8 W 1005,5 25 0 0,0
12.12.2017 06:00:00 1,6 -0,2 - - - 9 5 21 12 WNW 1004,4 20 0 0,0
12.12.2017 05:00:00 2,3 0,4 - - - 13 7 20 11 WNW 1003,1 20 0 0,0
12.12.2017 04:00:00 2,3 0,5 0,7 4,4 8,8 11 6 19 10 NW 1001,9 20 0 0,0
12.12.2017 03:00:00 2,7 0,9 - - - 10 5 23 12 WNW 1000,3 20 0 0,0
12.12.2017 02:00:00 2,8 1,5 1,9 4,4 8,8 14 7 30 16 WNW 999,0 20 0 0,0
12.12.2017 01:00:00 3,7 2,4 2,7 4,5 8,8 22 12 39 21 WNW 997,8 20 0 0,0
12.12.2017 00:00:00 3,8 2,8 2,6 4,5 8,8 24 13 44 24 WNW 996,1 20 0 0,0
11.12.2017 23:00:00 3,6 2,7 2,4 4,5 8,8 28 15 42 23 NW 993,9 20 0 0,4
11.12.2017 22:00:00 3,3 2,7 2,1 4,5 8,8 22 12 45 24 NNW 991,8 20 0 0,2
11.12.2017 21:00:00 2,9 2,2 1,9 4,6 8,8 29 16 42 23 NNW 989,3 18 0 0,0
11.12.2017 20:00:00 2,7 2,3 2,0 4,7 8,8 19 10 49 26 NW 987,5 20 0 0,0
11.12.2017 19:00:00 2,8 2,2 - 4,8 8,9 30 16 50 27 NNW 984,6 20 0 0,0
11.12.2017 18:00:00 2,3 2,0 - - - 33 18 58 31 NNW 982,5 20 0 0,6
11.12.2017 17:00:00 1,8 1,5 - - - 37 20 73 39 N 979,6 30 0 0,8
11.12.2017 16:00:00 0,8 0,4 - - - 42 23 62 33 N 975,5 2,3 0 0,2
11.12.2017 15:00:00 0,4 -0,2 - - - 39 21 58 32 N 972,4 2,0 0 0,4
11.12.2017 14:00:00 1,1 0,4 - - - 40 22 58 31 NNE 970,5 7 0 2,0
11.12.2017 13:00:00 1,8 0,9 1,7 5,1 8,9 36 19 55 30 NE 969,6 7 0 3,1
11.12.2017 12:00:00 2,1 1,4 1,9 5,2 8,9 30 16 63 34 NE 969,9 8 0 1,4
11.12.2017 11:00:00 2,3 1,4 1,9 5,2 8,9 38 20 64 35 NE 971,0 3,5 0 2,4
11.12.2017 10:00:00 2,7 1,7 2,3 5,2 8,9 42 23 65 35 NE 970,8 6 0 1,4
11.12.2017 09:00:00 3,7 2,2 3,0 5,3 8,9 46 25 74 40 NE 971,8 8 0 5,0
11.12.2017 08:00:00 4,6 3,6 4,1 5,3 9,0 34 18 55 30 ENE 972,7 8 0 4,1
11.12.2017 07:00:00 4,9 4,0 4,5 5,2 8,9 26 14 37 20 ENE 973,6 8 0 1,2
11.12.2017 06:00:00 5,0 4,3 4,3 5,2 8,9 21 11 34 18 E 974,8 10 0 0,4
11.12.2017 05:00:00 4,8 3,8 4,3 5,3 9,0 19 11 28 15 ENE 976,3 14 0 0,4
11.12.2017 04:00:00 4,7 3,7 4,3 5,3 9,0 14 8 18 10 ENE 978,7 20 0 0,0
11.12.2017 03:00:00 5,0 3,7 4,1 5,3 9,0 11 6 18 10 ESE 980,4 20 0 0,0

tt = Température de l'air
td = dewpoint
tt 5cm = Température de l'air 5cm
tt -20cm = Température de l'air -20cm
tt -100cm = Température de l'air -100cm
ff = Vitesse du vent
fx = gusts
dd = Direction du vent
ppp = reduced air pressure
vv = visibility
sd = Ensoleillement
rr = Quantités de précipitations

stations d'obs. à proximité